When you browse on this site, cookies collect data to enhance your experience and personalize the content and advertising you see.
Visit our Privacy Policy to learn more. By continuing to use the site, you agree to this use of cookies and data.
  • In France
  • List of Countries
  • For 7 days
  • Water Temperature
  • Satellite Maps
  • Weather Map
  • Weather Widgets
  • user-avatar
    Login

    Hourly Weather Monteria

    Today, 20 November, Tuesday

    Time Temperature Precipitation Wind Pressure Humidity
    00:00 +27°C° 0.3 mm 2 mps 755 mmHg 91%
    01:00 +27°C° 0 mm 2 mps 755 mmHg 92%
    02:00 +27°C° 0.3 mm 2 mps 755 mmHg 92%
    03:00 +26°C° 0.3 mm 2 mps 755 mmHg 93%
    04:00 +26°C° 0.3 mm 2 mps 754 mmHg 94%
    05:00 +26°C° 0.3 mm 2 mps 755 mmHg 93%
    06:00 +27°C° 0.3 mm 2 mps 755 mmHg 93%
    07:00 +27°C° 0 mm 2 mps 755 mmHg 92%
    08:00 +28°C° 0.2 mm 2 mps 755 mmHg 87%
    09:00 +30°C° 0.2 mm 2 mps 755 mmHg 82%
    10:00 +31°C° 0.2 mm 2 mps 755 mmHg 77%
    11:00 +32°C° 1 mm 2 mps 755 mmHg 74%
    12:00 +34°C° 1 mm 2 mps 754 mmHg 70%
    13:00 +33°C° 1 mm 1 mps 754 mmHg 67%
    14:00 +34°C° 0.6 mm 2 mps 753 mmHg 70%
    15:00 +34°C° 0.6 mm 2 mps 753 mmHg 74%
    16:00 +33°C° 0.6 mm 3 mps 753 mmHg 77%
    17:00 +31°C° 0.5 mm 3 mps 753 mmHg 80%
    18:00 +30°C° 0.5 mm 3 mps 754 mmHg 84%
    19:00 +28°C° 0.5 mm 3 mps 754 mmHg 87%
    20:00 +28°C° 0.4 mm 2 mps 755 mmHg 88%
    21:00 +28°C° 0.4 mm 2 mps 755 mmHg 88%
    22:00 +28°C° 0.4 mm 2 mps 756 mmHg 89%
    23:00 +27°C° 0.2 mm 2 mps 756 mmHg 89%

    Tomorrow, 21 November, Wednesday

    Time Temperature Precipitation Wind Pressure Humidity
    00:00 +27°C° 0.2 mm 2 mps 755 mmHg 90%
    01:00 +27°C° 0.2 mm 2 mps 755 mmHg 90%
    02:00 +27°C° 0.1 mm 2 mps 755 mmHg 91%
    03:00 +27°C° 0.1 mm 2 mps 755 mmHg 91%
    04:00 +26°C° 0.1 mm 3 mps 755 mmHg 92%
    05:00 +26°C° 0 mm 2 mps 755 mmHg 92%
    06:00 +27°C° 0 mm 2 mps 756 mmHg 91%
    07:00 +27°C° 0 mm 2 mps 756 mmHg 91%
    08:00 +28°C° 0 mm 2 mps 756 mmHg 86%
    09:00 +29°C° 0 mm 2 mps 756 mmHg 81%
    10:00 +31°C° 0 mm 2 mps 757 mmHg 76%
    11:00 +32°C° 0.1 mm 2 mps 756 mmHg 73%
    12:00 +32°C° 0.1 mm 2 mps 755 mmHg 69%
    13:00 +33°C° 0.1 mm 1 mps 755 mmHg 66%
    14:00 +33°C° 0.1 mm 1 mps 754 mmHg 68%
    15:00 +34°C° 0.1 mm 2 mps 754 mmHg 70%
    16:00 +34°C° 0.1 mm 2 mps 753 mmHg 72%
    17:00 +31°C° 1.2 mm 2 mps 754 mmHg 78%
    18:00 +29°C° 1.2 mm 2 mps 754 mmHg 83%
    19:00 +28°C° 1.2 mm 2 mps 754 mmHg 89%
    20:00 +28°C° 0.8 mm 2 mps 755 mmHg 90%
    21:00 +27°C° 0.8 mm 2 mps 756 mmHg 91%
    22:00 +27°C° 0.8 mm 2 mps 756 mmHg 92%
    23:00 +27°C° 0.4 mm 2 mps 756 mmHg 92%

    Day after tomorrow, 22 November, Thursday

    Time Temperature Precipitation Wind Pressure Humidity
    00:00 +27°C° 0.4 mm 2 mps 756 mmHg 92%
    01:00 +27°C° 0.4 mm 2 mps 756 mmHg 92%
    02:00 +26°C° 0.1 mm 2 mps 755 mmHg 93%
    03:00 +26°C° 0.1 mm 2 mps 755 mmHg 93%
    04:00 +26°C° 0.1 mm 2 mps 755 mmHg 93%
    05:00 +26°C° 0 mm 2 mps 755 mmHg 93%
    06:00 +27°C° 0 mm 2 mps 755 mmHg 92%
    07:00 +27°C° 0 mm 2 mps 756 mmHg 92%
    08:00 +28°C° 0.3 mm 2 mps 756 mmHg 88%
    09:00 +29°C° 0.3 mm 2 mps 756 mmHg 83%
    10:00 +30°C° 0.3 mm 2 mps 757 mmHg 79%
    11:00 +31°C° 0.6 mm 2 mps 756 mmHg 77%
    12:00 +32°C° 0.6 mm 2 mps 755 mmHg 75%
    13:00 +32°C° 0.6 mm 2 mps 755 mmHg 73%
    14:00 +33°C° 1.4 mm 3 mps 754 mmHg 76%
    15:00 +31°C° 1.4 mm 3 mps 754 mmHg 80%
    16:00 +30°C° 1.4 mm 3 mps 753 mmHg 83%
    17:00 +29°C° 0.6 mm 3 mps 754 mmHg 86%
    18:00 +28°C° 0.6 mm 3 mps 754 mmHg 88%
    19:00 +26°C° 0.6 mm 3 mps 755 mmHg 91%
    20:00 +26°C° 0 mm 3 mps 755 mmHg 91%
    21:00 +26°C° 0 mm 3 mps 756 mmHg 91%
    22:00 +25°C° 0 mm 3 mps 756 mmHg 91%
    23:00 +25°C° 0.1 mm 3 mps 756 mmHg 92%

    23 November, Friday

    Time Temperature Precipitation Wind Pressure Humidity
    00:00 +25°C° 0.1 mm 3 mps 756 mmHg 92%
    01:00 +25°C° 0.1 mm 3 mps 756 mmHg 93%
    02:00 +25°C° 0.1 mm 3 mps 755 mmHg 93%
    03:00 +25°C° 0.1 mm 3 mps 755 mmHg 94%
    04:00 +25°C° 0.1 mm 3 mps 755 mmHg 94%
    05:00 +25°C° 0 mm 2 mps 755 mmHg 93%
    06:00 +25°C° 0 mm 2 mps 755 mmHg 92%
    07:00 +25°C° 0 mm 2 mps 756 mmHg 91%
    08:00 +27°C° 0 mm 2 mps 756 mmHg 86%
    09:00 +29°C° 0 mm 2 mps 756 mmHg 80%
    10:00 +30°C° 0 mm 3 mps 757 mmHg 74%
    11:00 +31°C° 0 mm 2 mps 756 mmHg 72%
    12:00 +32°C° 0 mm 2 mps 755 mmHg 69%
    13:00 +32°C° 0 mm 2 mps 755 mmHg 66%
    14:00 +32°C° 0.5 mm 2 mps 754 mmHg 67%
    15:00 +32°C° 0.5 mm 1 mps 754 mmHg 69%
    16:00 +32°C° 0.5 mm 1 mps 753 mmHg 71%
    17:00 +30°C° 0.8 mm 1 mps 754 mmHg 75%
    18:00 +29°C° 0.8 mm 1 mps 754 mmHg 80%
    19:00 +27°C° 0.8 mm 1 mps 755 mmHg 85%
    20:00 +27°C° 0.2 mm 1 mps 755 mmHg 86%
    21:00 +27°C° 0.2 mm 2 mps 756 mmHg 88%
    22:00 +26°C° 0.2 mm 2 mps 756 mmHg 89%
    23:00 +26°C° 0.3 mm 2 mps 756 mmHg 89%

    24 November, Saturday

    Time Temperature Precipitation Wind Pressure Humidity
    00:00 +25°C° 0.3 mm 2 mps 756 mmHg 90%
    01:00 +25°C° 0.3 mm 2 mps 755 mmHg 91%
    02:00 +25°C° 0 mm 2 mps 755 mmHg 91%
    03:00 +24°C° 0 mm 2 mps 755 mmHg 91%
    04:00 +24°C° 0 mm 2 mps 755 mmHg 90%
    05:00 +24°C° 0 mm 2 mps 755 mmHg 90%
    06:00 +25°C° 0 mm 2 mps 756 mmHg 90%
    07:00 +25°C° 0 mm 2 mps 756 mmHg 89%
    08:00 +27°C° 0.2 mm 2 mps 756 mmHg 85%
    09:00 +28°C° 0.2 mm 2 mps 757 mmHg 80%
    10:00 +30°C° 0.2 mm 2 mps 757 mmHg 75%
    11:00 +31°C° 1 mm 2 mps 756 mmHg 72%
    12:00 +31°C° 1 mm 2 mps 755 mmHg 69%
    13:00 +32°C° 1 mm 2 mps 754 mmHg 66%
    14:00 +32°C° 0.5 mm 2 mps 754 mmHg 68%
    15:00 +32°C° 0.5 mm 2 mps 754 mmHg 69%
    16:00 +32°C° 0.5 mm 2 mps 753 mmHg 70%
    17:00 +30°C° 0 mm 2 mps 754 mmHg 74%
    18:00 +29°C° 0 mm 2 mps 754 mmHg 78%
    19:00 +27°C° 0 mm 2 mps 755 mmHg 82%
    20:00 +27°C° 0.1 mm 2 mps 755 mmHg 84%
    21:00 +27°C° 0.1 mm 2 mps 756 mmHg 86%
    22:00 +26°C° 0.1 mm 1 mps 756 mmHg 87%
    23:00 +26°C° 0.2 mm 1 mps 756 mmHg 89%

    25 November, Sunday

    Time Temperature Precipitation Wind Pressure Humidity
    00:00 +26°C° 0.2 mm 1 mps 756 mmHg 90%
    01:00 +26°C° 0.2 mm 1 mps 756 mmHg 91%
    02:00 +25°C° 0.3 mm 1 mps 755 mmHg 92%
    03:00 +25°C° 0.3 mm 1 mps 755 mmHg 92%
    04:00 +25°C° 0.3 mm 1 mps 755 mmHg 93%
    05:00 +25°C° 0.2 mm 1 mps 755 mmHg 92%
    06:00 +26°C° 0.2 mm 1 mps 756 mmHg 92%
    07:00 +26°C° 0.2 mm 1 mps 756 mmHg 91%
    08:00 +27°C° 0.1 mm 1 mps 757 mmHg 86%
    09:00 +29°C° 0.1 mm 1 mps 757 mmHg 81%
    10:00 +30°C° 0.1 mm 1 mps 757 mmHg 76%
    11:00 +31°C° 0.1 mm 1 mps 756 mmHg 72%
    12:00 +32°C° 0.1 mm 2 mps 755 mmHg 69%
    13:00 +34°C° 0.1 mm 2 mps 754 mmHg 66%
    14:00 +32°C° 0 mm 2 mps 754 mmHg 68%
    15:00 +33°C° 0 mm 3 mps 753 mmHg 71%
    16:00 +33°C° 0 mm 3 mps 753 mmHg 73%
    17:00 +30°C° 0.1 mm 3 mps 754 mmHg 78%
    18:00 +29°C° 0.1 mm 3 mps 754 mmHg 83%
    19:00 +27°C° 0.1 mm 2 mps 755 mmHg 89%
    20:00 +27°C° 0 mm 2 mps 755 mmHg 89%
    21:00 +27°C° 0 mm 2 mps 755 mmHg 90%
    22:00 +26°C° 0 mm 2 mps 756 mmHg 90%
    23:00 +26°C° 0.4 mm 2 mps 756 mmHg 91%
    Show more